Home   Weather   Loma Linda   Past weeks

Flag for USA Past Weather in Loma Linda, California, USA — Yesterday and Last 2 Weeks

Now
56 °F

Sunny.


Feels Like: 56 °F
Forecast: 43 / 64 °F
Wind: No wind

Location: Norton Air Force Base / San Bern

Current Time: Dec 8, 2016 at 10:16:04 am

Latest Report: Dec 8, 2016 at 9:38 am


Visibility: 10 mi

Pressure: 30.27 "Hg

Humidity: 38%

Dew Point: 31 °F

Location of Loma LindaLocation

Past Weather in Loma Linda — Graph

°F

Loma Linda Temperature Yesterday

Maximum temperature yesterday: 64 °F (at 2:50 pm)
Minimum temperature yesterday: 47 °F (at 11:59 pm)
Average temperature yesterday: 54 °F

High & Low Weather Summary for the Past Weeks

 TemperatureHumidityPressure
High81 °F (Nov 25, 2:47 pm)100% (Dec 2, 10:50 am)30.25 "Hg (Dec 2, 10:50 am)
Low39 °F (Nov 30, 6:38 am)9% (Nov 25, 11:39 am)29.83 "Hg (Nov 28, 4:47 pm)
Average54 °F48%30.04 "Hg
* Reported Nov 23 8:46 am — Dec 8 8:50 am, Loma Linda, Weather by CustomWeather, © 2016

Note: Actual official high and low records may vary slightly from our data, if they occured in-between our weather recording intervals... More about our weather records

Advertising

Loma Linda Weather History for the Previous 24 Hours

Scroll right to see more
 ConditionsComfort  
Time TempWeatherWind HumidityBarometerVisibility
8:50 am
Thu, Dec 8
52 °FPassing clouds.No wind47%30.25 "Hg7 mi
8:38 am51 °FSunny.No wind49%30.25 "Hg10 mi
7:50 am46 °FScattered clouds.No wind62%30.23 "Hg7 mi
7:38 am46 °FScattered clouds.No wind63%30.23 "Hg10 mi
6:50 am43 °FScattered clouds.3 mph66%30.22 "Hg10 mi
6:38 am44 °FPassing clouds.No wind64%30.22 "Hg10 mi
5:38 am42 °FClear.No wind72%30.20 "Hg10 mi
5:18 am41 °FClear.No wind72%30.19 "Hg10 mi
4:59 am42 °FClear.No wind68%30.18 "Hg10 mi
4:38 am41 °FClear.5 mph73%30.18 "Hg10 mi
4:18 am42 °FClear.3 mph69%30.17 "Hg10 mi
3:59 am43 °FClear.No wind66%30.17 "Hg10 mi
3:38 am46 °FClear.5 mph59%30.17 "Hg10 mi
3:18 am42 °FClear.3 mph68%30.17 "Hg10 mi
2:59 am42 °FClear.5 mph69%30.17 "Hg10 mi
2:39 am42 °FClear.3 mph69%30.18 "Hg10 mi
2:18 am42 °FClear.No wind68%30.18 "Hg10 mi
1:58 am45 °FClear.No wind66%30.17 "Hg10 mi
1:39 am41 °FClear.3 mph72%30.17 "Hg10 mi
1:18 am45 °FClear.5 mph63%30.18 "Hg10 mi
12:59 am45 °FClear.No wind62%30.17 "Hg10 mi
12:18 am46 °FClear.No wind61%30.17 "Hg10 mi
11:59 pm
Wed, Dec 7
47 °FClear.No wind59%30.17 "Hg10 mi
11:38 pm48 °FClear.No wind57%30.17 "Hg10 mi
11:19 pm49 °FClear.No wind56%30.17 "Hg10 mi
10:58 pm48 °FClear.3 mph59%30.17 "Hg10 mi
10:38 pm48 °FClear.5 mph59%30.17 "Hg10 mi
10:19 pm49 °FClear.No wind58%30.17 "Hg10 mi
9:58 pm50 °FClear.No wind57%30.16 "Hg10 mi
8:47 pm48 °FClear.5 mph62%30.15 "Hg10 mi
8:38 pm50 °FClear.3 mph56%30.15 "Hg10 mi
7:47 pm55 °FClear.No wind33%30.14 "Hg7 mi
7:38 pm55 °FPassing clouds.No wind36%30.14 "Hg10 mi
6:47 pm57 °FPassing clouds.No wind29%30.13 "Hg7 mi
6:38 pm57 °FPassing clouds.3 mph27%30.13 "Hg10 mi
5:50 pm59 °FPassing clouds.6 mph25%30.11 "Hg10 mi
5:39 pm59 °FClear.9 mph26%30.10 "Hg10 mi
4:47 pm59 °FPassing clouds.8 mph39%30.08 "Hg7 mi
4:38 pm60 °FSunny.7 mph31%30.08 "Hg10 mi
3:50 pm63 °FScattered clouds.5 mph25%30.07 "Hg7 mi
3:39 pm63 °FSunny.7 mph25%30.07 "Hg10 mi
2:50 pm64 °FScattered clouds.5 mph34%30.07 "Hg7 mi
1:50 pm63 °FScattered clouds.No wind34%30.06 "Hg7 mi
1:39 pm62 °FSunny.No wind37%30.07 "Hg10 mi
12:50 pm63 °FPartly sunny.No wind37%30.07 "Hg6 mi
12:39 pm61 °FSunny.No wind38%30.08 "Hg10 mi
11:49 am59 °FOvercast.No wind51%30.09 "Hg5 mi
11:39 am60 °FSunny.No wind41%30.09 "Hg10 mi
10:50 am57 °FOvercast.3 mph55%30.10 "Hg5 mi
10:39 am57 °FSunny.No wind57%30.11 "Hg10 mi
Weather by CustomWeather, © 2016

See weather overviewHow to use our weather pages